Regional Weather Roundup
Issued by NWS

Home | Current Version | Previous Version | Text Only | Print | Product List | Glossary Off
Versions: 1 2 3 4 5 6 7 8 9 10 11 12 13 14 15 16 17 18 19 20 21 22 23 24 25 26 27 28 29 30 31 32 33 34 35 36 37 38 39 40 41 42 43 44 45 46 47 48 49 50

000
ASUS43 KFSD 251410
RWRSD

WEATHER ROUNDUP FOR SOUTH DAKOTA
NATIONAL WEATHER SERVICE SIOUX FALLS SD
800 AM CST SAT FEB 25 2017

NOTE: "FAIR" INDICATES FEW OR NO CLOUDS BELOW 12,000 FEET WITH NO
SIGNIFICANT WEATHER AND/OR OBSTRUCTIONS TO VISIBILITY.


SDZ001>005-009-010-012>017-251500-
NORTHWEST AND NORTH CENTRAL SOUTH DAKOTA

CITY           SKY/WX    TMP DP  RH WIND       PRES   REMARKS
BUFFALO          N/A     24  21  88 W8        29.80F WCI  15
FAITH            N/A     21  19  92 SW6       29.88F WCI  13
MOBRIDGE       CLEAR     22  14  71 E7        29.90F WCI  13
$$

SDZ012>016-024>037-041>051-057-063-072>074-251500-
SOUTHWEST AND SOUTH CENTRAL SOUTH DAKOTA

CITY           SKY/WX    TMP DP  RH WIND       PRES   REMARKS
RAPID CTY ARPT CLOUDY    22  15  75 W6        29.90S WCI  14
PIERRE         CLOUDY    20  15  81 S8        29.96F WCI  10
CUSTER         CLEAR     11   7  84 CALM      29.79F
ELLSWORTH AFB  CLOUDY    21  16  81 W5        29.89S WCI  15
PHILIP         CLEAR     15  12  88 W7        29.95S WCI   5
PINE RIDGE     CLOUDY     9   6  88 W3        29.94S
SPEARFISH      CLOUDY    25  18  74 W12       29.88S WCI  14
WINNER         CLOUDY    17  10  74 S12       29.99F WCI   4
$$

SDZ004>011-016>023-039-040-251500-
NORTHEAST SOUTH DAKOTA

CITY           SKY/WX    TMP DP  RH WIND       PRES   REMARKS
ABERDEEN       CLOUDY    18  14  84 S6        29.98F WCI  10
WATERTOWN      CLEAR     14  11  87 CALM      29.96F
BROOKINGS      CLEAR     16  14  92 W5        29.99S WCI   9
SISSETON         N/A     22  16  78 W5        29.97F WCI  16
$$

SDZ017-020-022-023-036>040-048>070-251500-
SOUTHEAST SOUTH DAKOTA

CITY           SKY/WX    TMP DP  RH WIND       PRES   REMARKS
SIOUX FALLS    MOCLDY    15  12  88 W6        30.03S WCI   6
HURON          CLOUDY    21  18  88 SW8       30.01F WCI  11
CHAMBERLAIN    CLOUDY    23  17  77 S9        30.00F WCI  13
MITCHELL       CLOUDY    22  17  81 SW6       30.05F WCI  14
YANKTON        CLOUDY    18  10  73 SW7       30.08S WCI   8
$$

ABBREVIATIONS USED IN REMARKS
   TC - TEMPERATURE IN CELSIUS
  WCI - WIND CHILL INDEX
   HX - HEAT INDEX
  VSB - VISIBILITY





USA.gov is the U.S. government's official web portal to all federal, state and local government web resources and services.